User: anonymous   Login
Location: Oshawa
(43.9000°N, 78.8670°W)
Time: 02:15:46
(UTC-05:00)
Language:

CZ-4C R/B - Orbit

View from above orbital plane
View from above orbital plane
View from above satellite
View from above satellite

Ground track
Ground track

The orbit data is extracted from the following two-line orbital elements,

1 32290U 07055B   14350.32453889  .00013662  00000-0  49518-3 0   346
2 32290 097.5602 066.4943 0084714 131.6765 271.0247 15.25076741392007
Epoch (UTC): 16 December 2014 07:47:20
Eccentricity: 0.0084714
inclination: 97.5602°
perigee height: 432 km
apogee height: 549 km
right ascension of ascending node: 66.4943°
argument of perigee: 131.6765°
revolutions per day: 15.25076741
mean anomaly at epoch: 271.0247°
orbit number at epoch: 39200

The dashed part of the orbit path shows where the satellite is in the earth's shadow,  

DLR